Regional Weather Roundup
Issued by NWS New Orleans/Baton Rouge, LA

Home | Current Version | Previous Version | Text Only | Print | Product List | Glossary On
Versions: 1 2 3 4 5 6 7 8 9 10 11 12 13 14 15 16 17 18 19 20 21 22 23 24 25 26 27 28 29 30 31 32 33 34 35 36 37 38 39 40 41 42 43 44 45 46 47 48 49 50
122
ASUS44 KLIX 040605
RWRLIX
NEW ORLEANS REGIONAL WEATHER ROUNDUP
NATIONAL WEATHER SERVICE NEW ORLEANS LA
1200 AM CST WED MAR 04 2015

NOTE: "FAIR" INDICATES FEW OR NO CLOUDS BELOW 12,000 FEET WITH NO
      SIGNIFICANT WEATHER AND/OR OBSTRUCTIONS TO VISIBILITY.
      SKY/WX - SKY CONDITION AND SIGNIFICANT WEATHER.
      TMP - AIR TEMPERATURE.     DP    - DEWPOINT TEMPERATURE.
      RH  - RELATIVE HUMIDITY.   PRES  - PRESSURE.
      HI  - HEAT INDEX.          WCI   - WIND CHILL INDEX.

*  THESE STATIONS ARE NOT NWS OR FAA STATIONS AND ARE NOT UNDER
   NWS QUALITY CONTROL.

LAZ038-040-048-061>063-065>067-069-040700-
SOUTHEAST LOUISIANA

CITY           SKY/WX    TMP DP  RH WIND       PRES   REMARKS
N.O. AUDUBON     N/A     68  68 100 MISG        N/A
6HR MIN TEMP:  68; 6HR MAX TEMP:  73;

N.O. INTL ARPT MOCLDY    69  65  86 S3        30.00S
6HR MIN TEMP:  68; 6HR MAX TEMP:  73;

N.O. LAKEFRONT MOCLDY    69  65  86 SE6       30.01F
6HR MIN TEMP:  69; 6HR MAX TEMP:  76;

SLIDELL        CLOUDY    68  68 100 SE9       30.01S
6HR MIN TEMP:  68; 6HR MAX TEMP:  71;

BATON ROUGE    MOCLDY    68  67  96 SE6       29.98F
6HR MIN TEMP:  68; 6HR MAX TEMP:  72;

BOOTHVILLE     FOG       64  63  96 E5        30.02F VSB 1/2
6HR MIN TEMP:  63; 6HR MAX TEMP:  71;

BELLE CHASSE   MOCLDY    68  65  90 SE7       30.00S
6HR MIN TEMP:  68; 6HR MAX TEMP:  74;

BOGALUSA*        N/A     70  66  86 S5        30.02F
6HR MIN TEMP:  69; 6HR MAX TEMP:  74;

GALLIANO*      MOCLDY    68  66  93 CALM      30.01S
6HR MIN TEMP:  68; 6HR MAX TEMP:  75;

NEW ROADS*     CLOUDY    69  67  96 SE3       29.98S
6HR MIN TEMP:  69; 6HR MAX TEMP:  74;

GONZALES*      MOCLDY    68  68 100 SE5       29.98F
6HR MIN TEMP:  67; 6HR MAX TEMP:  73;

HAMMOND*       CLOUDY    66  63  88 SE6       30.01F FOG
HOUMA*         CLOUDY    70  69  96 S5        30.00S
6HR MIN TEMP:  70; 6HR MAX TEMP:  73;

PORT FOURCHON* CLOUDY    70  68  94 CALM      30.03F

$$

MSZ070-080>082-040700-
SOUTHERN MISSISSIPPI

CITY           SKY/WX    TMP DP  RH WIND       PRES   REMARKS
MCCOMB         CLOUDY    67  65  93 S7        29.99F
6HR MIN TEMP:  66; 6HR MAX TEMP:  69; 6HR PCP:  0.13;

GULFPORT       CLOUDY    64  63  96 SE10      30.03F FOG
6HR MIN TEMP:  64; 6HR MAX TEMP:  66;

BILOXI         FOG       66  66 100 SE9       30.03F VSB 3/4
6HR MIN TEMP:  66; 6HR MAX TEMP:  67;

PASCAGOULA     CLOUDY    66  65  96 S13       30.04F
6HR MIN TEMP:  64; 6HR MAX TEMP:  67;


$$

COASTAL OBSERVATIONS
LAKE AND NEARSHORE STATIONS

STATION/POSITION TIME  TEMP    WIND        PRES    WAVE
                       AIR SEA DIR/SP/G            HT/PER
                 (UTC) (F)     (DEG/KT/KT) (MB)    (FT/S)
PASCAGOULA       0600   63     130/  2/  8 1016.8
WAVELAND YACHT   0600   63 59  150/  9/ 11 1016.5
GRAND ISLE       0600   67 64  130/  3/  6 1016.5
SOUTHWEST PASS   0600   64 46  160/ 10/ 12 1016.6
NEW CANAL        0600   68     140/  3/  5 1016.4
SHELL BEACH      0600   66 62  140/  9/ 11 1016.3

OFFSHORE STATIONS

STATION/POSITION TIME  TEMP    WIND        PRES    WAVE
                       AIR SEA DIR/SP/G            HT/PER
                 (UTC) (F)     (DEG/KT/KT) (MB)    (FT/S)
64 S DAUPHIN ISL 0520   71 71  150/ 17/ 21 1017.3    4/ 6

$$




USA.gov is the U.S. government's official web portal to all federal, state and local government web resources and services.